CFG785 LOWI-LXGB

Flight info

Callsign CFG785
Flight time 2h 53m
Altitude 19000
Route BRENO M726 NAXAV M984 LUSIL Y740 SRN M858 GEN M859 LAGEN Q712 ENOBA Z185 BORDI N736 IVLAM/N0412F210 N736 PIGOS/N0400F190 N86 MAMES/N0460F350 M984 BISBA N975 BCN/N0460F370 M985 MGA N869 PIMOS
Aircraft A320/M-SDE3FGHIRWY/LB1

Departure

Time 2026-05-05 13:29
Airport Innsbruck Airport (LOWI)

Arrival

Time 2026-05-05 16:22
Airport Gibraltar Airport (LXGB)
Time Latitude Longitude Altitude Speed Heading
2026-05-05 12:35 47.25829 11.35108 1907 ft 0 kts 171°
2026-05-05 13:21 47.25837 11.35107 1893 ft 4 kts 172°
2026-05-05 13:21 47.25864 11.35104 1896 ft 4 kts 191°
2026-05-05 13:21 47.25884 11.35118 1897 ft 4 kts 251°
2026-05-05 13:22 47.25885 11.35126 1899 ft 0 kts 261°
2026-05-05 13:23 47.25885 11.35125 1899 ft 0 kts 261°
2026-05-05 13:24 47.25880 11.35077 1901 ft 11 kts 261°
2026-05-05 13:24 47.25865 11.34938 1903 ft 14 kts 261°
2026-05-05 13:24 47.25851 11.34808 1907 ft 13 kts 261°
2026-05-05 13:24 47.25837 11.34679 1907 ft 13 kts 261°
2026-05-05 13:25 47.25824 11.34556 1907 ft 11 kts 261°
2026-05-05 13:25 47.25813 11.34450 1907 ft 11 kts 261°
2026-05-05 13:25 47.25796 11.34290 1904 ft 17 kts 261°
2026-05-05 13:25 47.25780 11.34146 1903 ft 15 kts 261°
2026-05-05 13:26 47.25773 11.34004 1907 ft 14 kts 277°
2026-05-05 13:26 47.25827 11.33835 1904 ft 19 kts 309°
2026-05-05 13:26 47.25887 11.33724 1908 ft 19 kts 307°
2026-05-05 13:26 47.25932 11.33559 1908 ft 17 kts 264°
2026-05-05 13:27 47.25908 11.33348 1902 ft 22 kts 255°
2026-05-05 13:27 47.25840 11.33168 1906 ft 19 kts 259°
2026-05-05 13:27 47.25877 11.33066 1903 ft 13 kts
2026-05-05 13:27 47.25885 11.33127 1903 ft 5 kts 99°
2026-05-05 13:28 47.25891 11.33195 1906 ft 10 kts 81°
2026-05-05 13:28 47.25935 11.33601 1898 ft 76 kts 81°
2026-05-05 13:28 47.26051 11.34681 1910 ft 134 kts 80°
2026-05-05 13:28 47.26217 11.36138 2343 ft 149 kts 83°
2026-05-05 13:29 47.26357 11.37701 2981 ft 159 kts 86°
2026-05-05 13:29 47.26501 11.39364 3400 ft 172 kts 84°
2026-05-05 13:29 47.26677 11.41167 3729 ft 183 kts 85°
2026-05-05 13:29 47.26870 11.43045 4126 ft 186 kts 85°
2026-05-05 13:30 47.27140 11.44900 4645 ft 187 kts 72°
2026-05-05 13:30 47.27586 11.46718 5095 ft 192 kts 71°
2026-05-05 13:30 47.28096 11.48593 5447 ft 204 kts 70°
2026-05-05 13:30 47.28670 11.50576 5811 ft 217 kts 71°
2026-05-05 13:31 47.29274 11.52649 6295 ft 223 kts 69°
2026-05-05 13:31 47.29886 11.54772 6815 ft 228 kts 71°
2026-05-05 13:31 47.30508 11.56941 7344 ft 232 kts 71°
2026-05-05 13:31 47.31146 11.59192 7756 ft 245 kts 70°
2026-05-05 13:32 47.31619 11.61619 8236 ft 249 kts 96°
2026-05-05 13:32 47.31118 11.63982 8718 ft 243 kts 133°
2026-05-05 13:32 47.29762 11.65364 9213 ft 241 kts 170°
2026-05-05 13:32 47.28122 11.65201 9759 ft 242 kts 207°
2026-05-05 13:33 47.26856 11.63570 10096 ft 250 kts 239°
2026-05-05 13:33 47.26251 11.61157 10816 ft 249 kts 255°
2026-05-05 13:33 47.25944 11.58723 11640 ft 235 kts 258°
2026-05-05 13:33 47.25694 11.56407 12375 ft 226 kts 257°
2026-05-05 13:34 47.25411 11.54118 12966 ft 228 kts 256°
2026-05-05 13:34 47.25078 11.51833 13571 ft 229 kts 255°
2026-05-05 13:34 47.24706 11.49554 14134 ft 230 kts 253°
2026-05-05 13:34 47.24305 11.47259 14638 ft 233 kts 253°
2026-05-05 13:35 47.23887 11.44948 15149 ft 236 kts 252°
2026-05-05 13:35 47.23445 11.42615 15671 ft 237 kts 248°
2026-05-05 13:35 47.22532 11.40661 16119 ft 235 kts 212°
2026-05-05 13:35 47.21073 11.40122 16931 ft 219 kts 180°
2026-05-05 13:36 47.19487 11.40303 17051 ft 235 kts 184°
2026-05-05 13:36 47.18086 11.40199 17173 ft 247 kts 189°
2026-05-05 13:36 47.16321 11.39905 17311 ft 264 kts 189°
2026-05-05 13:36 47.14446 11.39569 17506 ft 277 kts 189°
2026-05-05 13:37 47.12501 11.39256 17815 ft 288 kts 188°
2026-05-05 13:37 47.10449 11.38965 17971 ft 304 kts 188°
2026-05-05 13:37 47.08277 11.38698 18111 ft 321 kts 187°
2026-05-05 13:37 47.06001 11.38445 18258 ft 337 kts 186°
2026-05-05 13:38 47.03608 11.38194 18379 ft 352 kts 186°
2026-05-05 13:38 47.01112 11.37942 18502 ft 367 kts 186°
2026-05-05 13:38 46.98511 11.37684 18640 ft 381 kts 186°
2026-05-05 13:38 46.95826 11.37415 18807 ft 392 kts 186°
2026-05-05 13:39 46.93080 11.37128 18912 ft 398 kts 186°
2026-05-05 13:39 46.90272 11.36825 18953 ft 412 kts 186°
2026-05-05 13:39 46.87382 11.36505 18948 ft 420 kts 186°
2026-05-05 13:39 46.84455 11.36178 18949 ft 422 kts 186°
2026-05-05 13:40 46.81524 11.35855 18958 ft 422 kts 186°
2026-05-05 13:40 46.78593 11.35537 18964 ft 422 kts 186°
2026-05-05 13:40 46.75673 11.35229 18973 ft 421 kts 186°
2026-05-05 13:40 46.72750 11.34926 18980 ft 421 kts 186°
2026-05-05 13:41 46.69828 11.34625 18985 ft 421 kts 186°
2026-05-05 13:41 46.66905 11.34326 18988 ft 421 kts 186°
2026-05-05 13:41 46.63984 11.34033 18990 ft 421 kts 186°
2026-05-05 13:41 46.61066 11.33735 18985 ft 420 kts 186°
2026-05-05 13:42 46.58149 11.33433 18990 ft 421 kts 186°
2026-05-05 13:42 46.55233 11.33130 18994 ft 420 kts 186°
2026-05-05 13:42 46.52330 11.32661 18994 ft 419 kts 193°
2026-05-05 13:42 46.49562 11.31387 18995 ft 416 kts 205°
2026-05-05 13:43 46.47070 11.29287 18991 ft 414 kts 217°
2026-05-05 13:43 46.44948 11.26480 18994 ft 414 kts 228°
2026-05-05 13:43 46.43256 11.23046 18961 ft 415 kts 239°
2026-05-05 13:43 46.41972 11.19347 18961 ft 416 kts 242°
2026-05-05 13:44 46.40686 11.15585 18964 ft 416 kts 242°
2026-05-05 13:44 46.39395 11.11834 19041 ft 416 kts 242°
2026-05-05 13:44 46.38099 11.08091 19045 ft 416 kts 242°
2026-05-05 13:44 46.36802 11.04346 19048 ft 416 kts 242°
2026-05-05 13:45 46.35484 11.00545 19048 ft 416 kts 242°
2026-05-05 13:45 46.34186 10.96809 19047 ft 416 kts 242°
2026-05-05 13:45 46.32902 10.93120 19041 ft 416 kts 242°
2026-05-05 13:45 46.31584 10.89332 19034 ft 416 kts 242°
2026-05-05 13:46 46.30284 10.85593 19046 ft 416 kts 242°
2026-05-05 13:46 46.28988 10.81861 19042 ft 416 kts 242°
2026-05-05 13:46 46.27710 10.78179 19038 ft 415 kts 242°
2026-05-05 13:46 46.26417 10.74452 19029 ft 415 kts 242°
2026-05-05 13:47 46.25122 10.70730 19021 ft 414 kts 242°
2026-05-05 13:47 46.23811 10.66967 19010 ft 414 kts 242°
2026-05-05 13:47 46.22529 10.63301 19002 ft 414 kts 242°
2026-05-05 13:47 46.21216 10.59548 19000 ft 414 kts 242°
2026-05-05 13:48 46.19918 10.55838 18988 ft 414 kts 242°
2026-05-05 13:48 46.18621 10.52131 18984 ft 413 kts 242°
2026-05-05 13:48 46.17323 10.48431 18984 ft 414 kts 242°
2026-05-05 13:48 46.16019 10.44724 18982 ft 414 kts 242°
2026-05-05 13:49 46.14716 10.41034 18978 ft 414 kts 242°
2026-05-05 13:49 46.13403 10.37321 18987 ft 414 kts 241°
2026-05-05 13:49 46.12096 10.33624 18987 ft 414 kts 242°
2026-05-05 13:49 46.10789 10.29923 18980 ft 414 kts 242°
2026-05-05 13:50 46.09485 10.26239 18976 ft 413 kts 242°
2026-05-05 13:50 46.08178 10.22548 18982 ft 413 kts 242°
2026-05-05 13:50 46.06873 10.18865 18986 ft 413 kts 242°
2026-05-05 13:50 46.05569 10.15189 18987 ft 412 kts 242°
2026-05-05 13:51 46.04261 10.11516 18983 ft 412 kts 241°
2026-05-05 13:51 46.02954 10.07854 18985 ft 412 kts 242°
2026-05-05 13:51 46.01646 10.04186 18986 ft 412 kts 242°
2026-05-05 13:51 46.00339 10.00520 18984 ft 412 kts 242°
2026-05-05 13:52 45.99030 9.96851 18985 ft 412 kts 242°
2026-05-05 13:52 45.97719 9.93183 18983 ft 412 kts 242°
2026-05-05 13:52 45.96408 9.89520 18992 ft 412 kts 242°
2026-05-05 13:52 45.95538 9.87093 18988 ft 412 kts 242°
2026-05-05 13:53 45.94230 9.83441 18981 ft 412 kts 242°
2026-05-05 13:53 45.92917 9.79785 18988 ft 412 kts 242°
2026-05-05 13:53 45.91603 9.76135 18984 ft 411 kts 242°
2026-05-05 13:53 45.90291 9.72489 18990 ft 411 kts 242°
2026-05-05 13:54 45.88974 9.68837 18988 ft 411 kts 242°
2026-05-05 13:54 45.87657 9.65196 18989 ft 411 kts 242°
2026-05-05 13:54 45.86343 9.61567 18988 ft 409 kts 242°
2026-05-05 13:54 45.85031 9.57941 18987 ft 410 kts 242°
2026-05-05 13:55 45.83720 9.54315 18981 ft 410 kts 242°
2026-05-05 13:55 45.82405 9.50691 18984 ft 410 kts 242°
2026-05-05 13:55 45.81090 9.47078 19003 ft 409 kts 241°
2026-05-05 13:55 45.79771 9.43456 19001 ft 410 kts 241°
2026-05-05 13:56 45.78451 9.39840 18992 ft 409 kts 241°
2026-05-05 13:56 45.77133 9.36230 18995 ft 409 kts 241°
2026-05-05 13:56 45.75813 9.32625 18994 ft 408 kts 241°
2026-05-05 13:56 45.74494 9.29028 18999 ft 408 kts 241°
2026-05-05 13:57 45.73176 9.25431 18990 ft 408 kts 241°
2026-05-05 13:57 45.71857 9.21836 18993 ft 407 kts 241°
2026-05-05 13:57 45.70538 9.18254 18989 ft 407 kts 241°
2026-05-05 13:57 45.69215 9.14673 18996 ft 407 kts 241°
2026-05-05 13:58 45.67887 9.11097 18990 ft 407 kts 239°
2026-05-05 13:58 45.66263 9.07795 18987 ft 406 kts 229°
2026-05-05 13:58 45.64177 9.05075 18987 ft 407 kts 217°
2026-05-05 13:58 45.61713 9.03069 18979 ft 410 kts 205°
2026-05-05 13:59 45.56104 9.01491 18983 ft 416 kts 186°
2026-05-05 13:59 45.53212 9.01280 18986 ft 417 kts 186°
2026-05-05 14:00 45.47424 9.00855 18978 ft 416 kts 187°
2026-05-05 14:00 45.44538 9.00640 18978 ft 416 kts 187°
2026-05-05 14:00 45.41645 9.00418 18966 ft 416 kts 186°
2026-05-05 14:00 45.38761 9.00196 18965 ft 415 kts 186°
2026-05-05 14:01 45.35872 8.99972 18976 ft 415 kts 186°
2026-05-05 14:01 45.32948 8.99746 18967 ft 415 kts 186°
2026-05-05 14:01 45.30063 8.99528 18965 ft 415 kts 186°
2026-05-05 14:01 45.27180 8.99316 18968 ft 415 kts 186°
2026-05-05 14:02 45.24296 8.99104 18970 ft 415 kts 186°
2026-05-05 14:02 45.21418 8.98891 18973 ft 415 kts 186°
2026-05-05 14:02 45.18531 8.98676 18979 ft 415 kts 186°
2026-05-05 14:02 45.15653 8.98460 18975 ft 415 kts 186°
2026-05-05 14:03 45.12770 8.98239 18984 ft 415 kts 186°
2026-05-05 14:03 45.09927 8.98022 18979 ft 415 kts 186°
2026-05-05 14:03 45.07043 8.97805 18981 ft 415 kts 186°
2026-05-05 14:03 45.04166 8.97591 18984 ft 415 kts 186°
2026-05-05 14:04 45.01282 8.97374 18969 ft 415 kts 186°
2026-05-05 14:04 44.98400 8.97157 18936 ft 415 kts 186°
2026-05-05 14:04 44.95505 8.97237 18937 ft 419 kts 178°
2026-05-05 14:04 44.92569 8.97852 18944 ft 421 kts 175°
2026-05-05 14:05 44.89716 8.98473 18943 ft 421 kts 175°
2026-05-05 14:05 44.86785 8.99102 18943 ft 421 kts 175°
2026-05-05 14:05 44.83928 8.99702 18942 ft 421 kts 176°
2026-05-05 14:05 44.81027 9.00301 18939 ft 421 kts 176°
2026-05-05 14:06 44.78090 9.00903 18939 ft 421 kts 176°
2026-05-05 14:06 44.75236 9.01487 18937 ft 420 kts 176°
2026-05-05 14:06 44.72343 9.02079 18942 ft 421 kts 175°
2026-05-05 14:06 44.69448 9.02674 18940 ft 421 kts 176°
2026-05-05 14:07 44.66541 9.03272 18945 ft 421 kts 175°
2026-05-05 14:07 44.63644 9.03871 18945 ft 421 kts 176°
2026-05-05 14:07 44.60751 9.04471 18943 ft 421 kts 175°
2026-05-05 14:07 44.57849 9.05074 18947 ft 421 kts 175°
2026-05-05 14:08 44.54946 9.05674 18950 ft 421 kts 176°
2026-05-05 14:08 44.52052 9.06219 18953 ft 419 kts 180°
2026-05-05 14:08 44.49178 9.05927 18952 ft 411 kts 196°
2026-05-05 14:08 44.46537 9.04491 18955 ft 407 kts 212°
2026-05-05 14:09 44.44328 9.02049 18959 ft 406 kts 227°
2026-05-05 14:09 44.42713 8.98819 18963 ft 407 kts 242°
2026-05-05 14:09 44.41829 8.95045 18960 ft 412 kts 258°
2026-05-05 14:09 44.41565 8.91047 18961 ft 414 kts 262°
2026-05-05 14:10 44.41360 8.87033 18960 ft 414 kts 263°
2026-05-05 14:10 44.41159 8.83008 18960 ft 415 kts 263°
2026-05-05 14:10 44.40959 8.78980 18960 ft 415 kts 263°
2026-05-05 14:10 44.40759 8.74964 18960 ft 415 kts 263°
2026-05-05 14:11 44.40554 8.70934 18973 ft 415 kts 263°
2026-05-05 14:11 44.40346 8.66905 18968 ft 416 kts 262°
2026-05-05 14:11 44.40131 8.62866 18964 ft 416 kts 262°
2026-05-05 14:11 44.39913 8.58829 18964 ft 417 kts 262°
2026-05-05 14:12 44.39666 8.54787 18961 ft 416 kts 259°
2026-05-05 14:12 44.39046 8.50854 18963 ft 413 kts 250°
2026-05-05 14:12 44.37959 8.47159 18963 ft 411 kts 241°
2026-05-05 14:12 44.36456 8.43768 18962 ft 410 kts 234°
2026-05-05 14:13 44.34837 8.40493 18961 ft 410 kts 234°
2026-05-05 14:13 44.33218 8.37218 18961 ft 410 kts 234°
2026-05-05 14:13 44.31600 8.33946 18973 ft 410 kts 234°
2026-05-05 14:13 44.29973 8.30654 18967 ft 410 kts 235°
2026-05-05 14:14 44.28358 8.27381 18971 ft 410 kts 234°
2026-05-05 14:14 44.26737 8.24103 18971 ft 409 kts 234°
2026-05-05 14:14 44.25122 8.20840 18975 ft 409 kts 235°
2026-05-05 14:14 44.23502 8.17565 18976 ft 410 kts 235°
2026-05-05 14:15 44.21884 8.14303 18978 ft 409 kts 234°
2026-05-05 14:15 44.20264 8.11042 18980 ft 409 kts 234°
2026-05-05 14:15 44.18639 8.07775 18978 ft 409 kts 234°
2026-05-05 14:15 44.17015 8.04523 18979 ft 410 kts 234°
2026-05-05 14:16 44.15387 8.01266 18975 ft 410 kts 234°
2026-05-05 14:16 44.13756 7.98007 18957 ft 410 kts 234°
2026-05-05 14:16 44.12125 7.94748 18993 ft 410 kts 234°
2026-05-05 14:16 44.10494 7.91486 19000 ft 410 kts 234°
2026-05-05 14:17 44.08866 7.88239 18991 ft 409 kts 234°
2026-05-05 14:17 44.07237 7.84999 18989 ft 408 kts 234°
2026-05-05 14:17 44.05613 7.81769 18984 ft 407 kts 234°
2026-05-05 14:17 44.03992 7.78547 18982 ft 405 kts 234°
2026-05-05 14:18 44.02189 7.75534 18974 ft 406 kts 225°
2026-05-05 14:18 44.00038 7.73008 18969 ft 407 kts 216°
2026-05-05 14:18 43.97702 7.70775 18970 ft 407 kts 215°
2026-05-05 14:18 43.95368 7.68550 18951 ft 408 kts 216°
2026-05-05 14:19 43.93029 7.66321 18950 ft 408 kts 216°
2026-05-05 14:19 43.90694 7.64098 18944 ft 408 kts 215°
2026-05-05 14:19 43.88359 7.61871 18944 ft 408 kts 216°
2026-05-05 14:19 43.86015 7.59635 18951 ft 408 kts 216°
2026-05-05 14:20 43.83662 7.57394 18971 ft 407 kts 216°
2026-05-05 14:20 43.81345 7.55188 18969 ft 407 kts 216°
2026-05-05 14:20 43.79009 7.52969 18966 ft 407 kts 215°
2026-05-05 14:20 43.76669 7.50752 18958 ft 407 kts 216°
2026-05-05 14:21 43.74335 7.48545 18972 ft 407 kts 216°
2026-05-05 14:21 43.71992 7.46331 18972 ft 407 kts 216°
2026-05-05 14:21 43.69659 7.44130 18975 ft 407 kts 215°
2026-05-05 14:21 43.67320 7.41925 18976 ft 407 kts 216°
2026-05-05 14:22 43.64989 7.39726 18976 ft 407 kts 216°
2026-05-05 14:22 43.62645 7.37540 18976 ft 407 kts 213°
2026-05-05 14:22 43.60129 7.35719 18975 ft 408 kts 207°
2026-05-05 14:22 43.57565 7.34038 18942 ft 409 kts 207°
2026-05-05 14:23 43.55861 7.32922 18939 ft 409 kts 207°
2026-05-05 14:23 43.52426 7.30668 18941 ft 409 kts 207°
2026-05-05 14:23 43.49857 7.28985 18942 ft 409 kts 207°
2026-05-05 14:23 43.47287 7.27301 18943 ft 409 kts 207°
2026-05-05 14:24 43.44712 7.25612 18948 ft 409 kts 207°
2026-05-05 14:24 43.42142 7.23924 18949 ft 410 kts 207°
2026-05-05 14:24 43.39567 7.22237 18933 ft 410 kts 207°
2026-05-05 14:24 43.36992 7.20556 18934 ft 410 kts 207°
2026-05-05 14:25 43.34418 7.18882 18938 ft 410 kts 207°
2026-05-05 14:25 43.31838 7.17203 18942 ft 410 kts 207°
2026-05-05 14:25 43.30617 7.16407 18944 ft 410 kts 207°
2026-05-05 14:25 43.28048 7.14736 18947 ft 410 kts 207°
2026-05-05 14:26 43.25471 7.13059 18947 ft 410 kts 207°
2026-05-05 14:26 43.22892 7.11384 18950 ft 410 kts 207°
2026-05-05 14:26 43.20311 7.09707 18945 ft 410 kts 207°
2026-05-05 14:26 43.17863 7.07724 18946 ft 409 kts 217°
2026-05-05 14:27 43.15712 7.05185 18951 ft 408 kts 226°
2026-05-05 14:27 43.13918 7.02178 18954 ft 408 kts 234°
2026-05-05 14:27 43.12275 6.99015 18950 ft 408 kts 234°
2026-05-05 14:27 43.10626 6.95848 18952 ft 408 kts 234°
2026-05-05 14:28 43.08972 6.92683 18957 ft 408 kts 233°
2026-05-05 14:28 43.07318 6.89525 18957 ft 409 kts 233°
2026-05-05 14:28 43.05663 6.86374 18958 ft 409 kts 233°
2026-05-05 14:28 43.03998 6.83214 18974 ft 409 kts 233°
2026-05-05 14:29 43.02335 6.80066 18960 ft 408 kts 233°
2026-05-05 14:29 43.00673 6.76919 18958 ft 409 kts 233°
2026-05-05 14:29 42.99011 6.73766 18957 ft 409 kts 233°
2026-05-05 14:29 42.97353 6.70618 18956 ft 409 kts 233°
2026-05-05 14:30 42.95691 6.67463 18951 ft 409 kts 233°
2026-05-05 14:30 42.94028 6.64311 18953 ft 409 kts 233°
2026-05-05 14:30 42.92361 6.61159 18954 ft 409 kts 233°
2026-05-05 14:30 42.90692 6.58012 18957 ft 409 kts 233°
2026-05-05 14:31 42.89157 6.54748 18956 ft 411 kts 241°
2026-05-05 14:31 42.88369 6.52402 18956 ft 412 kts 247°
2026-05-05 14:31 42.87569 6.48645 18957 ft 415 kts 256°
2026-05-05 14:31 42.87012 6.44785 18980 ft 415 kts 256°
2026-05-05 14:32 42.86450 6.40926 18979 ft 415 kts 256°
2026-05-05 14:32 42.85883 6.37080 18977 ft 414 kts 256°
2026-05-05 14:32 42.85312 6.33229 18974 ft 414 kts 256°
2026-05-05 14:32 42.84739 6.29382 18963 ft 414 kts 256°
2026-05-05 14:33 42.84167 6.25534 18948 ft 414 kts 256°
2026-05-05 14:33 42.83595 6.21685 18946 ft 415 kts 256°
2026-05-05 14:33 42.83020 6.17834 18947 ft 415 kts 256°
2026-05-05 14:33 42.82444 6.13984 18949 ft 415 kts 256°
2026-05-05 14:34 42.81867 6.10125 18955 ft 415 kts 256°
2026-05-05 14:34 42.81628 6.08531 18972 ft 415 kts 256°
2026-05-05 14:34 42.81521 6.07820 18971 ft 415 kts 256°
2026-05-05 14:34 42.81454 6.07371 18971 ft 415 kts 256°
2026-05-05 14:35 42.81374 6.06838 18970 ft 415 kts 256°
2026-05-05 14:35 42.81318 6.06467 18973 ft 415 kts 256°
2026-05-05 14:35 42.81275 6.06180 18974 ft 415 kts 256°
2026-05-05 14:36 42.80668 6.02136 18918 ft 415 kts 256°
2026-05-05 14:37 42.80089 5.98300 18916 ft 412 kts 255°
2026-05-05 14:37 42.79510 5.94478 18916 ft 412 kts 255°
2026-05-05 14:37 42.78929 5.90659 18913 ft 412 kts 255°
2026-05-05 14:37 42.78543 5.88133 18917 ft 412 kts 255°
2026-05-05 14:38 42.77763 5.83017 18919 ft 413 kts 255°
2026-05-05 14:38 42.77185 5.79241 18922 ft 413 kts 255°
2026-05-05 14:38 42.76601 5.75415 18924 ft 413 kts 255°
2026-05-05 14:38 42.76013 5.71582 18930 ft 413 kts 255°
2026-05-05 14:39 42.75425 5.67757 18955 ft 413 kts 255°
2026-05-05 14:39 42.74834 5.63931 18958 ft 413 kts 255°
2026-05-05 14:39 42.74242 5.60110 18958 ft 413 kts 255°
2026-05-05 14:39 42.73648 5.56293 18957 ft 412 kts 255°
2026-05-05 14:40 42.73056 5.52479 18954 ft 412 kts 255°
2026-05-05 14:40 42.72465 5.48668 18956 ft 412 kts 255°
2026-05-05 14:40 42.71874 5.44860 18955 ft 412 kts 255°
2026-05-05 14:40 42.71279 5.41051 18953 ft 412 kts 255°
2026-05-05 14:41 42.70682 5.37247 18953 ft 412 kts 255°
2026-05-05 14:41 42.70034 5.33454 18951 ft 410 kts 251°
2026-05-05 14:41 42.69024 5.29907 18968 ft 407 kts 242°
2026-05-05 14:41 42.68104 5.27633 18966 ft 406 kts 238°
2026-05-05 14:42 42.66212 5.23260 18962 ft 405 kts 238°
2026-05-05 14:42 42.64787 5.19960 18960 ft 405 kts 238°
2026-05-05 14:42 42.63358 5.16660 18957 ft 405 kts 238°
2026-05-05 14:42 42.61928 5.13357 18951 ft 405 kts 238°
2026-05-05 14:43 42.60503 5.10067 18952 ft 405 kts 238°
2026-05-05 14:43 42.59076 5.06770 18950 ft 405 kts 238°
2026-05-05 14:43 42.57651 5.03478 18948 ft 405 kts 238°
2026-05-05 14:43 42.56228 5.00180 18948 ft 405 kts 239°
2026-05-05 14:44 42.54992 4.96749 18947 ft 406 kts 243°
2026-05-05 14:44 42.54197 4.94454 18973 ft 406 kts 243°
2026-05-05 14:44 42.52995 4.90995 18966 ft 406 kts 243°
2026-05-05 14:44 42.51795 4.87537 18947 ft 405 kts 243°
2026-05-05 14:45 42.50595 4.84080 18925 ft 405 kts 243°
2026-05-05 14:45 42.49393 4.80626 18924 ft 405 kts 243°
2026-05-05 14:45 42.48190 4.77168 18924 ft 405 kts 243°
2026-05-05 14:45 42.46599 4.72597 18924 ft 405 kts 243°
2026-05-05 14:46 42.45785 4.70262 18926 ft 405 kts 243°
2026-05-05 14:46 42.44594 4.66862 18926 ft 405 kts 243°
2026-05-05 14:46 42.43385 4.63414 18925 ft 405 kts 243°
2026-05-05 14:46 42.42176 4.59968 18926 ft 405 kts 243°
2026-05-05 14:47 42.40968 4.56520 18953 ft 405 kts 243°
2026-05-05 14:47 42.39757 4.53073 18952 ft 405 kts 243°
2026-05-05 14:47 42.38546 4.49638 18950 ft 405 kts 243°
2026-05-05 14:47 42.37331 4.46198 18947 ft 404 kts 243°
2026-05-05 14:48 42.36121 4.42770 18939 ft 404 kts 243°
2026-05-05 14:48 42.34910 4.39341 18937 ft 404 kts 243°
2026-05-05 14:48 42.33701 4.35919 18935 ft 404 kts 243°
2026-05-05 14:48 42.32490 4.32493 18916 ft 404 kts 243°
2026-05-05 14:49 42.31281 4.29072 18918 ft 404 kts 243°
2026-05-05 14:49 42.30068 4.25646 18916 ft 404 kts 243°
2026-05-05 14:49 42.28870 4.22271 18916 ft 404 kts 243°
2026-05-05 14:49 42.27654 4.18854 18932 ft 404 kts 243°
2026-05-05 14:50 42.26436 4.15439 18934 ft 403 kts 243°
2026-05-05 14:50 42.25217 4.12027 18933 ft 403 kts 243°
2026-05-05 14:50 42.24002 4.08625 18930 ft 403 kts 243°
2026-05-05 14:50 42.22783 4.05220 18928 ft 403 kts 243°
2026-05-05 14:51 42.21564 4.01817 18929 ft 403 kts 243°
2026-05-05 14:51 42.20351 3.98405 18929 ft 403 kts 243°
2026-05-05 14:51 42.19188 3.94963 18929 ft 403 kts 244°
2026-05-05 14:51 42.18063 3.91499 18929 ft 404 kts 245°
2026-05-05 14:52 42.16954 3.88025 18928 ft 403 kts 245°
2026-05-05 14:52 42.15847 3.84552 18928 ft 403 kts 245°
2026-05-05 14:52 42.14731 3.81080 18936 ft 403 kts 245°
2026-05-05 14:52 42.13606 3.77624 18943 ft 404 kts 245°
2026-05-05 14:53 42.12469 3.74166 18930 ft 403 kts 244°
2026-05-05 14:53 42.11330 3.70717 18927 ft 403 kts 244°
2026-05-05 14:53 42.10191 3.67267 18926 ft 403 kts 244°
2026-05-05 14:53 42.09052 3.63813 18927 ft 403 kts 244°
2026-05-05 14:54 42.07913 3.60360 18921 ft 403 kts 244°
2026-05-05 14:54 42.06789 3.56959 18922 ft 403 kts 244°
2026-05-05 14:54 42.05646 3.53512 18923 ft 403 kts 244°
2026-05-05 14:54 42.04505 3.50069 18920 ft 404 kts 244°
2026-05-05 14:55 42.03360 3.46620 18925 ft 404 kts 244°
2026-05-05 14:55 42.02216 3.43171 18924 ft 404 kts 244°
2026-05-05 14:55 42.01071 3.39724 18924 ft 404 kts 244°
2026-05-05 14:55 41.99923 3.36277 18926 ft 404 kts 244°
2026-05-05 14:56 41.98774 3.32835 18919 ft 404 kts 244°
2026-05-05 14:56 41.97621 3.29393 18921 ft 404 kts 244°
2026-05-05 14:56 41.96466 3.25954 18921 ft 404 kts 244°
2026-05-05 14:56 41.95303 3.22524 18919 ft 403 kts 242°
2026-05-05 14:57 41.93862 3.19297 18894 ft 402 kts 234°
2026-05-05 14:57 41.92167 3.16310 18902 ft 402 kts 232°
2026-05-05 14:57 41.90464 3.13337 18907 ft 401 kts 232°
2026-05-05 14:57 41.88760 3.10367 18908 ft 401 kts 232°
2026-05-05 14:58 41.87056 3.07405 18909 ft 401 kts 232°
2026-05-05 14:58 41.85373 3.04483 18928 ft 401 kts 232°
2026-05-05 14:58 41.83670 3.01522 18923 ft 401 kts 232°
2026-05-05 14:58 41.81971 2.98559 18921 ft 401 kts 232°
2026-05-05 14:59 41.80270 2.95598 18920 ft 401 kts 232°
2026-05-05 14:59 41.78567 2.92639 18915 ft 401 kts 232°
2026-05-05 14:59 41.76866 2.89688 18915 ft 401 kts 232°
2026-05-05 14:59 41.75158 2.86730 18911 ft 401 kts 232°
2026-05-05 15:00 41.73447 2.83772 18899 ft 401 kts 232°
2026-05-05 15:00 41.72315 2.81817 18902 ft 401 kts 232°
2026-05-05 15:00 41.70032 2.77874 18913 ft 401 kts 232°
2026-05-05 15:00 41.68326 2.74931 18915 ft 400 kts 232°
2026-05-05 15:01 41.66617 2.71991 18920 ft 400 kts 232°
2026-05-05 15:01 41.64912 2.69057 18917 ft 400 kts 232°
2026-05-05 15:01 41.63204 2.66120 18929 ft 400 kts 232°
2026-05-05 15:01 41.61494 2.63181 18922 ft 400 kts 232°
2026-05-05 15:02 41.59786 2.60248 18917 ft 400 kts 232°
2026-05-05 15:02 41.58095 2.57350 18920 ft 401 kts 232°
2026-05-05 15:02 41.56379 2.54411 18916 ft 401 kts 232°
2026-05-05 15:02 41.54667 2.51477 18915 ft 401 kts 232°
2026-05-05 15:03 41.52955 2.48544 18903 ft 400 kts 232°
2026-05-05 15:03 41.51244 2.45614 18913 ft 400 kts 232°
2026-05-05 15:03 41.49532 2.42693 18921 ft 399 kts 232°
2026-05-05 15:03 41.47819 2.39782 18920 ft 399 kts 232°
2026-05-05 15:04 41.46106 2.36875 18928 ft 399 kts 232°
2026-05-05 15:04 41.44394 2.33967 18925 ft 398 kts 232°
2026-05-05 15:04 41.42686 2.31061 18924 ft 398 kts 232°
2026-05-05 15:04 41.40975 2.28153 18940 ft 398 kts 232°
2026-05-05 15:05 41.37551 2.22347 18923 ft 399 kts 232°
2026-05-05 15:05 41.35836 2.19442 18919 ft 399 kts 232°
2026-05-05 15:05 41.34118 2.16537 18916 ft 400 kts 232°
2026-05-05 15:06 41.32397 2.13630 18895 ft 400 kts 232°
2026-05-05 15:06 41.30676 2.10729 18908 ft 399 kts 231°
2026-05-05 15:06 41.28924 2.07934 18920 ft 399 kts 230°
2026-05-05 15:06 41.27083 2.05168 18924 ft 399 kts 229°
2026-05-05 15:07 41.25216 2.02450 18925 ft 399 kts 228°
2026-05-05 15:07 41.23338 1.99742 18925 ft 398 kts 228°
2026-05-05 15:07 41.21462 1.97031 18924 ft 398 kts 228°
2026-05-05 15:07 41.19601 1.94320 18923 ft 398 kts 228°
2026-05-05 15:08 41.17748 1.91598 18925 ft 397 kts 229°
2026-05-05 15:08 41.15898 1.88867 18935 ft 398 kts 229°
2026-05-05 15:08 41.14046 1.86132 18917 ft 398 kts 229°
2026-05-05 15:08 41.12196 1.83404 18911 ft 398 kts 229°
2026-05-05 15:09 41.10344 1.80678 18906 ft 397 kts 229°
2026-05-05 15:09 41.08496 1.77962 18907 ft 397 kts 229°
2026-05-05 15:09 41.06647 1.75245 18894 ft 397 kts 229°
2026-05-05 15:09 41.04799 1.72532 18893 ft 396 kts 229°
2026-05-05 15:10 41.02952 1.69825 18892 ft 396 kts 229°
2026-05-05 15:10 41.01103 1.67115 18895 ft 396 kts 229°
2026-05-05 15:10 40.99258 1.64410 18894 ft 396 kts 229°
2026-05-05 15:10 40.97410 1.61710 18893 ft 396 kts 229°
2026-05-05 15:11 40.95586 1.59045 18896 ft 396 kts 229°
2026-05-05 15:11 40.93740 1.56346 18896 ft 396 kts 229°
2026-05-05 15:11 40.91893 1.53648 18895 ft 396 kts 229°
2026-05-05 15:11 40.90039 1.50943 18902 ft 397 kts 229°
2026-05-05 15:12 40.88187 1.48250 18888 ft 396 kts 229°
2026-05-05 15:12 40.86334 1.45554 18898 ft 396 kts 229°
2026-05-05 15:12 40.84485 1.42863 18909 ft 395 kts 229°
2026-05-05 15:12 40.82636 1.40176 18908 ft 395 kts 229°
2026-05-05 15:13 40.80785 1.37494 18914 ft 395 kts 229°
2026-05-05 15:13 40.78930 1.34812 18917 ft 395 kts 229°
2026-05-05 15:13 40.77079 1.32137 18913 ft 395 kts 229°
2026-05-05 15:13 40.75227 1.29462 18912 ft 395 kts 229°
2026-05-05 15:14 40.73375 1.26792 18913 ft 395 kts 229°
2026-05-05 15:14 40.71523 1.24122 18912 ft 394 kts 229°
2026-05-05 15:14 40.69675 1.21455 18912 ft 394 kts 229°
2026-05-05 15:14 40.67825 1.18782 18910 ft 394 kts 229°
2026-05-05 15:15 40.65980 1.16115 18907 ft 394 kts 229°
2026-05-05 15:15 40.64129 1.13443 18923 ft 394 kts 229°
2026-05-05 15:15 40.62280 1.10781 18912 ft 395 kts 229°
2026-05-05 15:15 40.60447 1.08147 18905 ft 395 kts 229°
2026-05-05 15:16 40.58588 1.05480 18902 ft 396 kts 229°
2026-05-05 15:16 40.56728 1.02815 18899 ft 396 kts 229°
2026-05-05 15:16 40.54864 1.00146 18897 ft 396 kts 229°
2026-05-05 15:16 40.53002 0.97478 18896 ft 396 kts 229°
2026-05-05 15:17 40.51139 0.94809 18897 ft 396 kts 229°
2026-05-05 15:17 40.49273 0.92144 18896 ft 396 kts 229°
2026-05-05 15:17 40.47406 0.89484 18898 ft 396 kts 229°
2026-05-05 15:17 40.45539 0.86826 18889 ft 395 kts 229°
2026-05-05 15:18 40.43677 0.84176 18901 ft 395 kts 229°
2026-05-05 15:18 40.41818 0.81527 18907 ft 394 kts 229°
2026-05-05 15:18 40.39961 0.78883 18909 ft 393 kts 229°
2026-05-05 15:18 40.38106 0.76245 18931 ft 393 kts 229°
2026-05-05 15:19 40.36250 0.73614 18921 ft 393 kts 229°
2026-05-05 15:19 40.34392 0.70981 18914 ft 393 kts 229°
2026-05-05 15:19 40.32534 0.68352 18909 ft 393 kts 229°
2026-05-05 15:19 40.30673 0.65718 18904 ft 393 kts 229°
2026-05-05 15:20 40.28817 0.63092 18901 ft 394 kts 229°
2026-05-05 15:20 40.26953 0.60455 18901 ft 394 kts 229°
2026-05-05 15:20 40.25118 0.57858 18876 ft 394 kts 229°
2026-05-05 15:20 40.23260 0.55235 18893 ft 393 kts 229°
2026-05-05 15:21 40.21402 0.52616 18903 ft 392 kts 229°
2026-05-05 15:21 40.19551 0.50011 18910 ft 391 kts 229°
2026-05-05 15:21 40.17694 0.47403 18911 ft 391 kts 229°
2026-05-05 15:21 40.15844 0.44804 18917 ft 391 kts 229°
2026-05-05 15:22 40.13995 0.42206 18920 ft 391 kts 229°
2026-05-05 15:22 40.12142 0.39605 18919 ft 390 kts 229°
2026-05-05 15:22 40.10290 0.37005 18924 ft 391 kts 229°
2026-05-05 15:22 40.08440 0.34410 18914 ft 391 kts 229°
2026-05-05 15:23 40.06582 0.31809 18905 ft 392 kts 229°
2026-05-05 15:23 40.04722 0.29208 18907 ft 392 kts 229°
2026-05-05 15:23 40.02859 0.26611 18884 ft 392 kts 230°
2026-05-05 15:23 40.00998 0.24016 18900 ft 391 kts 229°
2026-05-05 15:24 39.99139 0.21427 18913 ft 391 kts 229°
2026-05-05 15:24 39.97281 0.18841 18915 ft 390 kts 229°
2026-05-05 15:24 39.95418 0.16248 18852 ft 395 kts 227°
2026-05-05 15:24 39.93529 0.13616 19001 ft 402 kts 227°
2026-05-05 15:25 39.91585 0.10907 19121 ft 414 kts 229°
2026-05-05 15:25 39.89667 0.08240 18959 ft 401 kts 229°
2026-05-05 15:25 39.87783 0.05627 18929 ft 393 kts 229°
2026-05-05 15:25 39.85915 0.03039 18931 ft 392 kts 229°
2026-05-05 15:26 39.84049 0.00455 18925 ft 391 kts 229°
2026-05-05 15:26 39.82190 -0.02123 18933 ft 390 kts 229°
2026-05-05 15:26 39.80332 -0.04697 18895 ft 390 kts 229°
2026-05-05 15:26 39.78479 -0.07259 18917 ft 389 kts 229°
2026-05-05 15:27 39.76622 -0.09818 18921 ft 389 kts 229°
2026-05-05 15:27 39.74762 -0.12376 18911 ft 389 kts 229°
2026-05-05 15:27 39.72909 -0.14926 18909 ft 389 kts 229°
2026-05-05 15:27 39.71053 -0.17481 18906 ft 389 kts 229°
2026-05-05 15:28 39.69200 -0.20031 18903 ft 389 kts 229°
2026-05-05 15:28 39.67340 -0.22587 18903 ft 389 kts 229°
2026-05-05 15:28 39.65484 -0.25140 18900 ft 389 kts 229°
2026-05-05 15:28 39.63629 -0.27695 18899 ft 389 kts 229°
2026-05-05 15:29 39.61801 -0.30210 18902 ft 389 kts 229°
2026-05-05 15:29 39.59944 -0.32759 18898 ft 389 kts 229°
2026-05-05 15:29 39.58085 -0.35304 18900 ft 389 kts 229°
2026-05-05 15:29 39.56220 -0.37854 18879 ft 389 kts 229°
2026-05-05 15:30 39.54359 -0.40399 18880 ft 389 kts 229°
2026-05-05 15:30 39.52497 -0.42947 18891 ft 389 kts 229°
2026-05-05 15:30 39.50633 -0.45494 18891 ft 390 kts 229°
2026-05-05 15:30 39.48774 -0.48049 18895 ft 389 kts 231°
2026-05-05 15:31 39.47113 -0.50797 18898 ft 388 kts 235°
2026-05-05 15:31 39.46566 -0.51735 18895 ft 388 kts 235°
2026-05-05 15:31 39.43864 -0.56356 18900 ft 387 kts 235°
2026-05-05 15:31 39.42784 -0.58195 18900 ft 387 kts 234°
2026-05-05 15:32 39.41153 -0.60967 18896 ft 388 kts 234°
2026-05-05 15:32 39.40050 -0.62840 18903 ft 388 kts 234°
2026-05-05 15:32 39.37885 -0.66515 18902 ft 387 kts 234°
2026-05-05 15:32 39.36257 -0.69285 18911 ft 387 kts 235°
2026-05-05 15:33 39.34078 -0.72996 18885 ft 388 kts 235°
2026-05-05 15:33 39.32446 -0.75777 18886 ft 388 kts 235°
2026-05-05 15:33 39.31362 -0.77621 18904 ft 389 kts 235°
2026-05-05 15:33 39.29191 -0.81306 18908 ft 390 kts 235°
2026-05-05 15:34 39.28081 -0.83187 18906 ft 390 kts 235°
2026-05-05 15:34 39.26435 -0.85972 18912 ft 390 kts 235°
2026-05-05 15:34 39.24791 -0.88751 18916 ft 390 kts 235°
2026-05-05 15:34 39.23146 -0.91526 18914 ft 390 kts 235°
2026-05-05 15:35 39.20960 -0.95213 18934 ft 390 kts 235°
2026-05-05 15:35 39.19869 -0.97055 18931 ft 390 kts 235°
2026-05-05 15:35 39.17667 -1.00773 18931 ft 390 kts 234°
2026-05-05 15:35 39.16019 -1.03549 18936 ft 390 kts 235°
2026-05-05 15:36 39.14368 -1.06328 18932 ft 390 kts 234°
2026-05-05 15:36 39.12717 -1.09104 18947 ft 390 kts 235°
2026-05-05 15:36 39.12181 -1.10004 18947 ft 390 kts 235°
2026-05-05 15:36 39.09965 -1.13714 18923 ft 391 kts 235°
2026-05-05 15:37 39.08303 -1.16488 18933 ft 391 kts 235°
2026-05-05 15:37 39.06643 -1.19262 18937 ft 392 kts 235°
2026-05-05 15:37 39.04983 -1.22040 18939 ft 392 kts 235°
2026-05-05 15:37 39.03324 -1.24817 18951 ft 391 kts 235°
2026-05-05 15:38 39.01663 -1.27595 18954 ft 392 kts 235°
2026-05-05 15:38 39.00001 -1.30372 18954 ft 392 kts 235°
2026-05-05 15:38 38.98339 -1.33151 18954 ft 392 kts 235°
2026-05-05 15:38 38.96140 -1.36821 18954 ft 392 kts 235°
2026-05-05 15:39 38.94471 -1.39596 18961 ft 392 kts 235°
2026-05-05 15:39 38.93345 -1.41465 18958 ft 392 kts 235°
2026-05-05 15:39 38.91699 -1.44193 18961 ft 392 kts 235°
2026-05-05 15:39 38.90028 -1.46961 18958 ft 392 kts 235°
2026-05-05 15:40 38.87801 -1.50659 18931 ft 392 kts 235°
2026-05-05 15:40 38.86695 -1.52497 18930 ft 392 kts 235°
2026-05-05 15:40 38.85026 -1.55267 18935 ft 393 kts 235°
2026-05-05 15:40 38.83349 -1.58045 18932 ft 394 kts 235°
2026-05-05 15:41 38.81672 -1.60818 18935 ft 394 kts 235°
2026-05-05 15:41 38.79989 -1.63599 18937 ft 395 kts 235°
2026-05-05 15:41 38.78304 -1.66381 18935 ft 395 kts 235°
2026-05-05 15:41 38.76045 -1.70106 18941 ft 396 kts 235°
2026-05-05 15:42 38.74358 -1.72885 18942 ft 395 kts 235°
2026-05-05 15:42 38.72667 -1.75667 18942 ft 396 kts 235°
2026-05-05 15:42 38.71549 -1.77506 18943 ft 396 kts 235°
2026-05-05 15:42 38.69858 -1.80286 18944 ft 396 kts 235°
2026-05-05 15:43 38.67615 -1.83962 18955 ft 395 kts 235°
2026-05-05 15:43 38.66471 -1.85836 18956 ft 395 kts 235°
2026-05-05 15:43 38.64228 -1.89506 18949 ft 395 kts 235°
2026-05-05 15:43 38.63084 -1.91375 18921 ft 396 kts 235°
2026-05-05 15:44 38.61405 -1.94119 18920 ft 397 kts 235°
2026-05-05 15:44 38.59703 -1.96904 18922 ft 398 kts 235°
2026-05-05 15:44 38.57997 -1.99693 18933 ft 399 kts 235°
2026-05-05 15:44 38.55700 -2.03439 18934 ft 401 kts 235°
2026-05-05 15:45 38.54561 -2.05294 18934 ft 401 kts 234°
2026-05-05 15:45 38.53977 -2.06244 18934 ft 402 kts 235°
2026-05-05 15:45 38.51108 -2.10914 18941 ft 402 kts 235°
2026-05-05 15:45 38.49378 -2.13719 18943 ft 402 kts 235°
2026-05-05 15:46 38.47646 -2.16526 18956 ft 402 kts 235°
2026-05-05 15:46 38.45917 -2.19335 18960 ft 403 kts 235°
2026-05-05 15:46 38.44188 -2.22149 18965 ft 403 kts 235°
2026-05-05 15:46 38.42460 -2.24957 18969 ft 403 kts 235°
2026-05-05 15:47 38.40718 -2.27777 18966 ft 403 kts 234°
2026-05-05 15:47 38.38983 -2.30579 18972 ft 404 kts 235°
2026-05-05 15:47 38.37241 -2.33390 18969 ft 404 kts 235°
2026-05-05 15:47 38.35435 -2.36145 18966 ft 407 kts 231°
2026-05-05 15:48 38.33517 -2.38730 18970 ft 407 kts 230°
2026-05-05 15:48 38.31546 -2.41381 18973 ft 407 kts 230°
2026-05-05 15:48 38.29626 -2.43962 18965 ft 407 kts 230°
2026-05-05 15:48 38.27680 -2.46576 18965 ft 407 kts 230°
2026-05-05 15:49 38.25737 -2.49187 18961 ft 407 kts 231°
2026-05-05 15:49 38.23785 -2.51805 18961 ft 408 kts 230°
2026-05-05 15:49 38.21835 -2.54412 18947 ft 406 kts 230°
2026-05-05 15:49 38.19892 -2.57008 18956 ft 406 kts 230°
2026-05-05 15:50 38.17944 -2.59612 18955 ft 407 kts 230°
2026-05-05 15:50 38.15985 -2.62225 18927 ft 408 kts 230°
2026-05-05 15:50 38.14016 -2.64850 18960 ft 413 kts 230°
2026-05-05 15:50 38.12031 -2.67498 18973 ft 413 kts 230°
2026-05-05 15:51 38.10047 -2.70145 18977 ft 414 kts 230°
2026-05-05 15:51 38.08086 -2.72758 18986 ft 415 kts 230°
2026-05-05 15:51 38.06099 -2.75404 18989 ft 414 kts 230°
2026-05-05 15:51 38.04112 -2.78051 18988 ft 415 kts 230°
2026-05-05 15:52 38.02125 -2.80693 18993 ft 414 kts 230°
2026-05-05 15:52 38.00133 -2.83336 18991 ft 414 kts 230°
2026-05-05 15:52 37.98143 -2.85971 18988 ft 414 kts 230°
2026-05-05 15:52 37.96151 -2.88604 18986 ft 413 kts 230°
2026-05-05 15:53 37.94162 -2.91230 18985 ft 414 kts 230°
2026-05-05 15:53 37.92171 -2.93860 18980 ft 414 kts 230°
2026-05-05 15:53 37.90178 -2.96493 18950 ft 414 kts 230°
2026-05-05 15:53 37.88187 -2.99121 18953 ft 414 kts 229°
2026-05-05 15:54 37.86186 -3.01761 18956 ft 415 kts 229°
2026-05-05 15:54 37.84188 -3.04396 18954 ft 415 kts 229°
2026-05-05 15:54 37.82191 -3.07029 18950 ft 415 kts 230°
2026-05-05 15:54 37.80184 -3.09673 18948 ft 416 kts 229°
2026-05-05 15:55 37.78180 -3.12306 18945 ft 416 kts 229°
2026-05-05 15:55 37.76166 -3.14942 18943 ft 417 kts 229°
2026-05-05 15:55 37.74150 -3.17582 18944 ft 417 kts 229°
2026-05-05 15:55 37.72137 -3.20219 18947 ft 417 kts 229°
2026-05-05 15:56 37.70148 -3.22833 18945 ft 418 kts 229°
2026-05-05 15:56 37.68130 -3.25480 18946 ft 418 kts 229°
2026-05-05 15:56 37.66112 -3.28124 18924 ft 418 kts 229°
2026-05-05 15:56 37.64093 -3.30766 18929 ft 419 kts 229°
2026-05-05 15:57 37.62066 -3.33416 18931 ft 420 kts 229°
2026-05-05 15:57 37.60037 -3.36061 18936 ft 420 kts 229°
2026-05-05 15:57 37.58000 -3.38713 18940 ft 421 kts 229°
2026-05-05 15:57 37.55966 -3.41361 18945 ft 421 kts 229°
2026-05-05 15:58 37.53928 -3.44012 18943 ft 421 kts 229°
2026-05-05 15:58 37.51888 -3.46660 18948 ft 422 kts 229°
2026-05-05 15:58 37.49842 -3.49314 18945 ft 422 kts 229°
2026-05-05 15:58 37.47800 -3.51970 18958 ft 422 kts 229°
2026-05-05 15:59 37.45756 -3.54626 18959 ft 423 kts 229°
2026-05-05 15:59 37.43709 -3.57282 18962 ft 422 kts 229°
2026-05-05 15:59 37.41661 -3.59934 18942 ft 423 kts 229°
2026-05-05 15:59 37.39612 -3.62586 18943 ft 423 kts 228°
2026-05-05 16:00 37.37560 -3.65239 18943 ft 424 kts 229°
2026-05-05 16:00 37.35529 -3.67863 18945 ft 424 kts 229°
2026-05-05 16:00 37.33445 -3.70553 18946 ft 425 kts 229°
2026-05-05 16:00 37.31411 -3.73179 18949 ft 425 kts 229°
2026-05-05 16:01 37.29352 -3.75835 18953 ft 425 kts 229°
2026-05-05 16:01 37.27284 -3.78496 18955 ft 425 kts 228°
2026-05-05 16:01 37.25218 -3.81151 18968 ft 425 kts 228°
2026-05-05 16:01 37.23151 -3.83804 18968 ft 425 kts 228°
2026-05-05 16:02 37.21086 -3.86458 18967 ft 425 kts 229°
2026-05-05 16:02 37.19017 -3.89116 18965 ft 426 kts 228°
2026-05-05 16:02 37.16946 -3.91773 18946 ft 426 kts 228°
2026-05-05 16:02 37.14874 -3.94424 18947 ft 426 kts 228°
2026-05-05 16:03 37.12801 -3.97077 18948 ft 426 kts 228°
2026-05-05 16:03 37.10729 -3.99728 18944 ft 426 kts 228°
2026-05-05 16:03 37.08653 -4.02382 18944 ft 426 kts 228°
2026-05-05 16:03 37.06577 -4.05033 18944 ft 427 kts 228°
2026-05-05 16:04 37.04499 -4.07682 18942 ft 426 kts 228°
2026-05-05 16:04 37.02419 -4.10331 18940 ft 426 kts 228°
2026-05-05 16:04 37.00340 -4.12981 18929 ft 426 kts 228°
2026-05-05 16:04 36.98277 -4.15610 18588 ft 422 kts 228°
2026-05-05 16:05 36.96251 -4.18185 18238 ft 420 kts 228°
2026-05-05 16:05 36.94205 -4.20781 17844 ft 418 kts 228°
2026-05-05 16:05 36.92174 -4.23356 17450 ft 415 kts 228°
2026-05-05 16:05 36.90154 -4.25920 17111 ft 412 kts 228°
2026-05-05 16:06 36.88150 -4.28458 16799 ft 410 kts 228°
2026-05-05 16:06 36.86147 -4.30992 16483 ft 409 kts 227°
2026-05-05 16:06 36.84152 -4.33511 16185 ft 407 kts 228°
2026-05-05 16:06 36.82141 -4.35993 15885 ft 406 kts 224°
2026-05-05 16:07 36.79916 -4.38166 15585 ft 408 kts 217°
2026-05-05 16:07 36.77524 -4.40077 15286 ft 407 kts 215°
2026-05-05 16:07 36.75145 -4.41965 15000 ft 405 kts 216°
2026-05-05 16:07 36.72772 -4.43849 14712 ft 404 kts 216°
2026-05-05 16:08 36.70406 -4.45731 14418 ft 402 kts 216°
2026-05-05 16:08 36.68053 -4.47601 14146 ft 401 kts 216°
2026-05-05 16:08 36.65710 -4.49460 13856 ft 399 kts 215°
2026-05-05 16:08 36.63370 -4.51316 13554 ft 397 kts 215°
2026-05-05 16:09 36.61043 -4.53161 13236 ft 395 kts 216°
2026-05-05 16:09 36.58724 -4.54995 12925 ft 394 kts 215°
2026-05-05 16:09 36.56444 -4.56798 12618 ft 392 kts 215°
2026-05-05 16:09 36.54113 -4.58641 12295 ft 392 kts 215°
2026-05-05 16:10 36.51817 -4.60459 12029 ft 391 kts 215°
2026-05-05 16:10 36.49553 -4.62249 11757 ft 390 kts 215°
2026-05-05 16:10 36.47266 -4.64055 11487 ft 389 kts 215°
2026-05-05 16:10 36.45002 -4.65840 11218 ft 378 kts 216°
2026-05-05 16:11 36.42828 -4.67547 10946 ft 363 kts 215°
2026-05-05 16:11 36.36782 -4.72289 10148 ft 325 kts 215°
2026-05-05 16:12 36.34899 -4.73768 9900 ft 315 kts 215°
2026-05-05 16:12 36.31294 -4.76598 9330 ft 298 kts 218°
2026-05-05 16:13 36.26209 -4.80595 8482 ft 281 kts 218°
2026-05-05 16:13 36.24569 -4.81885 8228 ft 279 kts 217°
2026-05-05 16:13 36.22928 -4.83174 7951 ft 278 kts 217°
2026-05-05 16:14 36.19652 -4.85741 7405 ft 279 kts 214°
2026-05-05 16:14 36.16521 -4.88476 7167 ft 270 kts 230°
2026-05-05 16:15 36.15121 -4.92286 7088 ft 230 kts 267°
2026-05-05 16:15 36.15139 -4.96175 6498 ft 223 kts 273°
2026-05-05 16:16 36.15196 -4.99997 5898 ft 222 kts 272°
2026-05-05 16:16 36.15249 -5.03798 5299 ft 220 kts 273°
2026-05-05 16:17 36.15298 -5.07550 4700 ft 216 kts 277°
2026-05-05 16:17 36.15322 -5.09398 4382 ft 214 kts 275°
2026-05-05 16:18 36.15368 -5.13029 3789 ft 209 kts 273°
2026-05-05 16:18 36.15404 -5.14808 3492 ft 206 kts 275°
2026-05-05 16:18 36.15489 -5.18324 2900 ft 203 kts 271°
2026-05-05 16:19 36.15497 -5.20033 2595 ft 199 kts 271°
2026-05-05 16:19 36.15483 -5.21703 2294 ft 190 kts 269°
2026-05-05 16:19 36.15424 -5.24868 1621 ft 179 kts 268°
2026-05-05 16:20 36.15346 -5.27788 969 ft 152 kts 268°
2026-05-05 16:20 36.15302 -5.30123 720 ft 128 kts 267°
2026-05-05 16:21 36.15236 -5.32265 339 ft 124 kts 264°
2026-05-05 16:22 36.15117 -5.35098 24 ft 43 kts 267°
2026-05-05 16:22 36.15103 -5.35516 22 ft 24 kts 268°
2026-05-05 16:23 36.15063 -5.35912 18 ft 18 kts 263°
2026-05-05 16:23 36.15110 -5.35946 16 ft 2 kts 57°
2026-05-05 16:23 36.15104 -5.35603 20 ft 26 kts 87°
2026-05-05 16:24 36.15108 -5.35394 23 ft 23 kts 89°
2026-05-05 16:24 36.15112 -5.35204 23 ft 22 kts 88°
2026-05-05 16:24 36.15126 -5.34851 23 ft 20 kts 88°
2026-05-05 16:25 36.15152 -5.34691 22 ft 18 kts 40°
2026-05-05 16:25 36.15288 -5.34719 17 ft 3 kts 360°
2026-05-05 16:25 36.15298 -5.34719 17 ft 0 kts
2026-05-05 16:26 36.15302 -5.34719 17 ft 0 kts
2026-05-05 16:38 36.15301 -5.34719 17 ft 0 kts